Погода в Андрюках

Россия / Краснодарский край     44°07′25″N   40°49′59″E
темп.,
°C
ветер,
м/с
пор.,
м/с
влажн.,
%
обл.,
%
осадки,
мм/ч
давл.,
гПа
погр.,
м
2 декабря, чт
чт200:00−1ю2277100 0.0 101144
03:000ю117952 0.1 101235
06:00−2з0191100 0.3 101517
09:00−1с119046 0.8 1017193
12:00+1с218162 0.3 1018517
15:00+2с11736 0.3 1018372
18:00−2ююз33802 0.0 102160
21:00−2ююз33680 0.0 102156
3 декабря, пт
пт300:00−1ююз33653 0.0 102041
03:000ююз326567 0.0 102030
06:00+1ююз3266100 0.0 101930
09:00+3ююз3362100 0.0 101942
12:00+8ссз115116 0.0 1016284
15:00+7с11703 0.0 101732
18:00+1ююз44654 0.0 102048
21:00+1ююз44605 0.0 102158
4 декабря, сб
сб400:00+1ююз4458100 0.0 102259
03:00+1ююз4460100 0.0 102153
06:00+2ююз446319 0.0 102149
09:00+4ююз336159 0.0 101957
12:00+10зюз014877 0.0 1015326
15:00+9ссз116248 0.0 101416
18:00+3ююз347022 0.0 101750
21:00+3ююз4467100 0.0 101653
5 декабря, вс
вс500:00+4ююз3466100 0.0 101552
03:00+4ююз3364100 0.0 101546
06:00+4ююз3265100 0.0 101529
09:00+5ююз2264100 0.0 101528
12:00+8св0160100 0.0 1013193
15:00+8юв0169100 0.0 101377
18:00+5ююз227699 0.0 101621
21:00+3ююз326676 0.0 101733
6 декабря, пн
пн600:00+2ююз32657 0.0 101834
03:00+2ююз32665 0.0 102035
06:00+2ююз32645 0.0 102036
09:00+4ююз23584 0.0 102148
12:00+10с11423 0.0 1018675
15:00+9ссв11526 0.0 1019303
18:00+4ююз3272100 0.0 102232
21:00+4ююз337395 0.0 102240